Regional Weather Roundup
Issued by NWS

Home | Current Version | Previous Version | Text Only | Print | Product List | Glossary Off
Versions: 1 2 3 4 5 6 7 8 9 10 11 12 13 14 15 16 17 18 19 20 21 22 23 24 25 26 27 28 29 30 31 32 33 34 35 36 37 38 39 40 41 42 43 44 45 46 47 48 49 50

000
ASUS45 KBOU 201107
RWRCO

WEATHER ROUNDUP FOR COLORADO
NATIONAL WEATHER SERVICE DENVER/BOULDER CO
400 AM MST THU NOV 20 2014

NOTE: "FAIR" INDICATES FEW OR NO CLOUDS BELOW 12000 FEET WITH NO
SIGNIFICANT WEATHER AND/OR OBSTRUCTIONS TO VISIBILITY.

COZ001>005-013-030-031-201200-
...NORTHWEST COLORADO...

CITY           SKY/WX    TMP DP  RH WIND       PRES   REMARKS
CRAIG          CLEAR     11   6  81 CALM      30.11F
HAYDEN         CLEAR     21  10  63 E13       30.10F WCI   9
MEEKER         PTCLDY    26  15  63 E5        30.12F WCI  20
MOUNT WERNER   NOT AVBL
STEAMBOAT SPGS PTCLDY    16  12  85 CALM      30.12S
WALDEN         CLOUDY    23   9  54 E8        30.06S WCI  14
$$

COZ006>008-011-201200-
...WEST CENTRAL VALLEYS...

CITY           SKY/WX    TMP DP  RH WIND       PRES   REMARKS
GRAND JUNCTION PTCLDY    25  13  60 E8        30.14F WCI  16
MONTROSE       PTCLDY    21  15  78 SE8       30.17F WCI  11
EAGLE          MOCLDY    16  12  86 E3        30.19F
RIFLE          PTCLDY    22  16  78 CALM      30.17F
DELTA          CLEAR     24  14  64 NE3       30.17F
NUCLA          CLEAR     28  19  69 E7        30.18S WCI  21
$$

COZ017>023-064>068-201200-
...SOUTHWEST COLORADO...

CITY           SKY/WX    TMP DP  RH WIND       PRES   REMARKS
DURANGO        PTCLDY    19  16  88 E3        30.14F
CORTEZ         MOCLDY    25  18  74 CALM      30.14F
PAGOSA SPRINGS PTCLDY    24  18  76 CALM      30.15F
TELLURIDE      NOT AVBL
WOLF CREEK PAS MOCLDY    19   1  45 SW13      30.17S WCI   7
$$

COZ009-010-012-014-032>034-037-058>063-201200-
...CENTRAL COLORADO...

CITY           SKY/WX    TMP DP  RH WIND       PRES   REMARKS
ASPEN          CLOUDY    18  12  77 S3        30.12F
BUENA VISTA    MOCLDY    27   7  42 W8        30.07F WCI  19
COPPER MTN     MOCLDY    23  -8  25 W6        30.14S WCI  16
BERTHOUD PASS  FAIR      12   9  85 NW26G35   30.08F WCI  -8
COTTONWOOD PAS CLOUDY    32 -11  15 NW13G18   30.08F WCI  22
GUNNISON       PTCLDY     7   1  78 NE6       30.22S WCI  -3
KREMMLING      PTCLDY    10   5  79 CALM      30.15F
LEADVILLE      CLOUDY    16   1  51 N9        30.10F WCI   4
MONARCH PASS   PTCLDY    19  -6  32 W35       30.22S WCI  -1
SALIDA         MOCLDY    32   5  31 N9        30.14S WCI  24
SUNLIGHT       CLOUDY    23   9  54 CALM      30.16S
WILKERSON PASS CLOUDY    27 -13  17 NW9G18    30.11F WCI  17
$$

COZ069>075-201200-
...SAN LUIS VALLEY/SANGRE DE CRISTO MOUNTAINS...

CITY           SKY/WX    TMP DP  RH WIND       PRES   REMARKS
ALAMOSA        PTCLDY     9   6  88 CALM      30.13S
LA VETA PASS   CLOUDY    21   9  58 SW13G24   30.07S WCI   9
SAGUACHE       PTCLDY    21   9  58 CALM      30.13F
$$

COZ035-036-038>040-201200-
...NORTHERN COLORADO FRONT RANGE...

CITY           SKY/WX    TMP DP  RH WIND       PRES   REMARKS
DENVER INTL AP PTCLDY    23  17  78 S3        29.98F
DMNS CITY PARK   N/A     24  18  79 SE1       29.98F
AURORA         PTCLDY    32  14  47 W2        29.99S
FRONT RANGE AP PTCLDY    32  21  64 W6        29.99S WCI  26
ERIE MUNI ARPT PTCLDY    19  17  92 CALM      29.99F
BOULDER MUN AP PTCLDY    28  19  69 W5        29.98F WCI  23
CENTENNIAL     PTCLDY    27  15  61 CALM      29.97F
BROOMFIELD     PTCLDY    32  19  59 N6        29.98F WCI  26
FORT COLLINS   CLEAR     23  16  74 S3        30.00S
LONGMONT       CLEAR     22  17  84 SW5       30.01F WCI  15
$$

COZ041-046-047-076>085-087-088-201200-
...PIKES PEAK/PALMER DIVIDE AND SOUTHERN FOOTHILLS...

CITY           SKY/WX    TMP DP  RH WIND       PRES   REMARKS
COLO. SPRINGS  MOCLDY    31  14  49 N9        29.98F WCI  23
A. F. ACADEMY  MOCLDY    25   7  46 N7        29.98F WCI  17
ELLICOTT       PTCLDY    24  16  71 CALM      29.97S
FALCON         NOT AVBL
FORT CARSON    MOCLDY    32  18  55 N10       29.96F WCI  24
LIMON          PTCLDY    16  12  84 NW5       29.99S WCI   9
MONUMENT HILL  PTCLDY    32   5  32 SW10      29.97F WCI  24
TRINIDAD       MOCLDY    26  17  68 NW7       29.99F WCI  18
$$

COZ042>045-048>051-090-091-201200-
...NORTHEAST COLORADO...

CITY           SKY/WX    TMP DP  RH WIND       PRES   REMARKS
GREELEY ARPT   CLEAR     16   7  67 CALM      30.01S
AKRON          CLEAR     22  19  89 W8        29.97F WCI  12
BURLINGTON     PTCLDY    19  15  84 W8        29.99S WCI   9
WRAY           PTCLDY    14  10  86 W6        30.00F WCI   5
STERLING       CLEAR     14  12  92 SW3       30.00S
HOLYOKE        PTCLDY    19  14  79 NW6       30.00F WCI  11
FORT MORGAN    CLEAR     19  15  82 NW7       30.00S WCI  10
$$

COZ086-089-092>099-201200-
...SOUTHEAST COLORADO...

CITY           SKY/WX    TMP DP  RH WIND       PRES   REMARKS
PUEBLO         PTCLDY    26  22  84 NW3       29.97F
LA JUNTA       MOCLDY    27  23  85 W7        29.99F WCI  19
LAMAR          MOCLDY    25  22  88 NW3       29.98F
SPRINGFIELD      N/A     26  22  84 W5        29.97F WCI  20
$$



USA.gov is the U.S. government's official web portal to all federal, state and local government web resources and services.